Location: Unspecified
(37.6100°N, 2.7800°W)
Time: 01:36:30

N. Korean satellite - Visible Passes

Search period start: 23 March 2018 00:00
Search period end: 02 April 2018 00:00
Orbit: 460 x 512 km, 97.2° (Epoch: 22 March)

Date Brightness Start Highest point End Pass type
(mag) Time Alt. Az. Time Alt. Az. Time Alt. Az.
24 Mar 10.4 19:16:31 10° WSW 19:17:31 11° W 19:18:30 10° WNW visible
25 Mar 9.7 18:50:36 10° SSW 18:53:30 22° W 18:56:27 10° NW visible
28 Mar 10.3 19:14:19 10° WSW 19:15:37 12° W 19:16:57 10° WNW visible
01 Apr 10.2 19:12:08 10° WSW 19:13:41 12° W 19:15:16 10° WNW visible
